Other Surface Observations
Issued by NWS Jacksonville, FL

Home | Current Version | Previous Version | Text Only | Print | Product List | Glossary On
Versions: 1 2 3 4 5 6 7 8 9 10 11 12 13 14 15 16 17 18 19 20 21 22 23 24 25 26 27 28 29 30 31 32 33 34 35 36 37 38 39 40 41 42 43 44 45 46 47 48 49 50
576
SXUS52 KJAX 281312
OSOJAX
OTHER SURFACE OBSERVATIONS
NATIONAL WEATHER SERVICE JACKSONVILLE FL
800 AM EST TUE FEB 28 2017

FLZ020>025-030>033-035>038-040-281400-
...FLORIDA...

CITY           SKY/WX    TMP DP  RH WIND       PRES   REMARKS
CECIL FIELD    FOG       57  57 100 CALM      30.29R VSB 1/2
HERLONG FIELD  NOT AVBL
FERNANDINA BCH NOT AVBL
LAKE CITY      FOG       59  59 100 CALM      30.29R VSB 1/2
JUNIPER SPGS   NOT AVBL
BUNNELL        NOT AVBL
KEYSTONE HGTS  FAIR      63  63 100 CALM      30.29R
$$

GAZ132>136-149>154-162>166-281400-
...GEORGIA...

CITY           SKY/WX    TMP DP  RH WIND       PRES   REMARKS
JESUP          CLOUDY    64  63  94 CALM      30.30R FOG
HOMERVILLE     FOG       63  63 100 CALM      30.29R VSB 1/4
SWAINSBORO     CLOUDY    59  59 100 CALM      30.30R
CORDELE        NOT AVBL
EASTMAN        CLOUDY    59  59  99 CALM      30.31S
$$

PLEASE NOTE:  THESE OBSERVATIONS ARE NOT QUALITY CONTROLLED AND MAY
NOT BE AVAILABLE AT ALL TIMES.
$$




USA.gov is the U.S. government's official web portal to all federal, state and local government web resources and services.